THOR ABLESTAR DEB, 263

Orbit data source: Space-Track

THOR ABLESTAR DEB, 263 is space debris in LEO originally from a launch on Thu, 29 Jun 1961 UTC launched from the Air Force Eastern Test Range (AFETR). Debris objects in space refer to the collection of defunct objects orbiting the Earth. Examples of debris include non-operational satellites, rocket bodies, and fragments generated from explosions, collisions, or faulty payload assembly.

Loading next visibility...
Identifier
263, 1961-015CK
Orbit
LEO
Last TLE update
13 hours ago
Origin
Manufacturer
Unknown
Mission
Spacecraft
Bus & Motor
Unknown
Mass
Unknown
Launch date (UTC)
1961-06-29 (64 years ago)
Launch vehicle
Unknown
Launch site
Air Force Eastern Test Range (AFETR)
Object type
Payload
Rocket body
Debris
Shape & HBR
Unknown
Radar Cross Section
Small (<0.1 m²)

Expand to show TLE details & history

TLE from 13 hours ago
0 THOR ABLESTAR DEB
1 00263U 61015CK  25198.80079927  .00001025  00000-0  29704-3 0  9994
2 00263  66.5306 313.1241 0094212 151.8718 288.4647 14.46143569334926
Epoch: 2025-07-17T19:13Z
TLE epoch observation values (Epoch: 2025-07-17T19:13:09.056Z)
Latitude
64.451°
Longitude
153.58392°
Altitude
727.847 km
Speed
7.509 km/s
True Right ascension
01h 10m 55s
True Declination
64° 18' 59"
Sunlit
Object was in daylight at epoch
Visualization orbit readout
Latitude
17.97587°
Longitude
95.5656°
Altitude
784.184 km
Speed
7.44 km/s
Apparent Right ascension
22h 09m 42s
Apparent Declination
-43° 21' 01"
Sunlit
Object is in full shadow
Visualization observer readout
Local Sidereal Time
20:58:24
Azimuth
167.084° S
Elevation
5.191°
Doppler factor
1
Orbital elements
Apogee altitude
803.684 km
Perigee altitude
669.625 km
Semi-major axis
7,114.791 km
Eccentricity
0.00942
Inclination
66.5306°
RAAN
313.1241°
Arg. of periapsis
151.8718°
True anomaly
287.43691°
Mean anomaly
288.4647°
Eccentric anomaly
287.95118°
Mean motion
3.6166 °/min
Orbital period
99.54 mins
BSTAR
0.00029704
Loading maneuver chart data...
Loading SW <> Apogee altitude chart data...
|